VK8HF Weather Reports


Display with metric or nautical units.
time (UTC)temp
F
wind
direction
speed
MPH
gust
MPH
rain 1hr
in
rain 24hr
in
rain mn
in
humidity
%
barometer
mb
20260507153011 73 282 1.0 6.0 0.00 0.00 0.00 62 1012.6
20260507151508 73 266 1.0 7.0 0.00 0.00 0.00 62 1012.7
20260507150011 73 237 2.0 7.0 0.00 0.00 0.00 62 1012.8
20260507143007 74 258 2.0 8.0 0.00 0.00 0.00 60 1012.9
20260507141507 74 268 2.0 9.0 0.00 0.00 0.00 61 1013.0
20260507140014 75 255 1.0 7.0 0.00 0.00 0.00 61 1013.0
20260507133009 75 267 0.0 3.0 0.00 0.00 0.00 62 1013.1
20260507131516 75 276 1.0 6.0 0.00 0.00 0.00 62 1013.1
20260507130004 75 268 0.0 5.0 0.00 0.00 0.00 63 1013.1
20260507123011 75 275 0.0 3.0 0.00 0.00 0.00 66 1013.1
20260507121503 75 274 0.0 3.0 0.00 0.00 0.00 64 1013.2
20260507120005 75 270 0.0 1.0 0.00 0.00 0.00 63 1013.1
20260507113004 74 287 0.0 0.0 0.00 0.00 0.00 67 1012.9
20260507111508 72 280 0.0 1.0 0.00 0.00 0.00 69 1012.8
20260507110003 70 210 0.0 0.0 0.00 0.00 0.00 77 1012.6
20260507103059 71 210 0.0 0.0 0.00 0.00 0.00 78 1012.3
20260507101559 71 210 0.0 0.0 0.00 0.00 0.00 78 1012.2
20260507100052 72 210 0.0 0.0 0.00 0.00 0.00 75 1012.1
20260507093053 76 211 0.0 0.0 0.00 0.00 0.00 67 1012.0
20260507091607 78 210 0.0 0.0 0.00 0.00 0.00 63 1011.8
20260507090047 81 210 0.0 0.0 0.00 0.00 0.00 57 1011.6
20260507083045 84 210 0.0 1.0 0.00 0.00 0.00 47 1011.1
20260507081545 85 218 0.0 3.0 0.00 0.00 0.00 45 1010.9
20260507080045 86 235 0.0 7.0 0.00 0.00 0.00 42 1010.8
20260507073044 87 257 2.0 8.0 0.00 0.00 0.00 40 1010.4
20260507071544 87 276 2.0 7.0 0.00 0.00 0.00 40 1010.3
20260507070057 87 235 1.0 8.0 0.00 0.00 0.00 41 1010.2
20260507063041 88 260 1.0 11.0 0.00 0.00 0.00 39 1010.2
20260507061540 88 280 1.0 10.0 0.00 0.00 0.00 41 1010.3
20260507060051 87 220 4.0 14.0 0.00 0.00 0.00 39 1010.3
20260507053035 87 210 5.0 14.0 0.00 0.00 0.00 39 1010.5
20260507051539 87 356 3.0 9.0 0.00 0.00 0.00 41 1010.6
20260507050039 87 249 3.0 13.0 0.00 0.00 0.00 39 1010.7
20260507043029 87 254 5.0 13.0 0.00 0.00 0.00 41 1011.2
20260507041525 86 202 1.0 11.0 0.00 0.00 0.00 43 1011.5
20260507040023 86 214 4.0 12.0 0.00 0.00 0.00 42 1011.7
20260507033019 85 213 6.0 13.0 0.00 0.00 0.00 41 1012.0
20260507031515 85 244 6.0 13.0 0.00 0.00 0.00 43 1012.2
20260507030017 85 213 7.0 14.0 0.00 0.00 0.00 43 1012.4
20260507023007 84 273 4.0 11.0 0.00 0.00 0.00 45 1013.0
20260507021504 84 257 4.0 13.0 0.00 0.00 0.00 44 1013.2
20260507020001 83 289 5.0 11.0 0.00 0.00 0.00 47 1013.5
20260507013057 81 212 6.0 12.0 0.00 0.00 0.00 48 1013.9
20260507011555 81 233 5.0 14.0 0.00 0.00 0.00 49 1014.1
20260507010109 80 260 8.0 15.0 0.00 0.00 0.00 50 1014.1
20260507003046 78 328 6.0 16.0 0.00 0.00 0.00 52 1014.1
20260507001551 78 202 7.0 17.0 0.00 0.00 0.00 51 1014.1
20260507000041 78 237 4.0 16.0 0.00 0.00 0.00 53 1014.2
20260506233038 77 221 7.0 17.0 0.00 0.00 0.00 54 1013.8
20260506231536 76 247 5.0 12.0 0.00 0.00 0.00 57 1013.6
20260506230031 75 273 4.0 11.0 0.00 0.00 0.00 59 1013.5
20260506223028 73 240 2.0 12.0 0.00 0.00 0.00 63 1013.3
20260506221526 73 238 4.0 9.0 0.00 0.00 0.00 63 1013.1
20260506220025 72 221 3.0 9.0 0.00 0.00 0.00 65 1012.8
20260506213020 71 215 3.0 9.0 0.00 0.00 0.00 66 1012.6
20260506211518 72 218 3.0 8.0 0.00 0.00 0.00 65 1012.5
20260506210016 72 273 4.0 9.0 0.00 0.00 0.00 64 1012.2
20260506203016 73 264 3.0 11.0 0.00 0.00 0.00 62 1011.8
20260506201520 73 253 5.0 10.0 0.00 0.00 0.00 62 1011.7
20260506200016 73 266 5.0 11.0 0.00 0.00 0.00 64 1011.5
20260506193008 73 245 3.0 8.0 0.00 0.00 0.00 64 1011.4
20260506191505 74 202 2.0 10.0 0.00 0.00 0.00 64 1011.5
20260506190004 74 255 3.0 10.0 0.00 0.00 0.00 64 1011.5
20260506183002 74 270 4.0 9.0 0.00 0.00 0.00 65 1011.5
20260506181503 74 248 2.0 9.0 0.00 0.00 0.00 66 1011.6
20260506174701 74 256 1.0 6.0 0.00 0.00 0.00 68 1011.4
20260506173128 74 216 2.0 7.0 0.00 0.00 0.00 68 1011.3
20260506171601 74 269 3.0 7.0 0.00 0.00 0.00 68 1011.4
20260506170058 74 195 1.0 7.0 0.00 0.00 0.00 69 1011.3
20260506164659 74 223 1.0 6.0 0.00 0.00 0.00 70 1011.5
20260506163056 74 259 1.0 6.0 0.00 0.00 0.00 69 1011.6
20260506161608 75 252 1.0 6.0 0.00 0.00 0.00 69 1011.9
20260506160054 75 271 1.0 6.0 0.00 0.00 0.00 68 1011.9